Location: Berkeley
(37.8716°N, 122.2727°W)
Time: 10:37:56
(UTC-07:00)

Envisat - Pass Details

Date: 26 April 2024
Orbit: 762 x 764 km, 98.3° (Epoch: 29 May)

Event Time Altitude Azimuth Distance (km) Brightness Sun altitude
Rises 04:53:17 0° 7° (N) 3,234 6.8 -16.0°
Reaches altitude 10° 04:55:39 10° 2° (N) 2,304 5.9 -15.6°
Maximum altitude 05:00:33 52° 287° (WNW) 942 3.2 -14.8°
Enters shadow 05:04:02 19° 217° (SW) 1,759 4.3 -14.2°
